カタログに戻る

STARLINK-30307

運用中通信VLEO
NORAD 57747·PAYLOAD·🇺🇸 United States

打ち上げ Sep 1, 2023 から Cape Canaveral Space Force Station

Loading…

次のパス (今後24時間)

TLE

最新Source: CelesTrak SupGP

元期: Sep 15, 2026, 02:06 UTC

1 57747C 23131R   26258.08798611 -.00021115  00000+0 -76490-3 0  2581
2 57747  43.0031 183.0064 0001223 269.3598 336.2262 15.27584770    16

AllMySatでSTARLINK-30307をリアルタイム追跡

Download on the App Store